Hourly Data Report for October 13, 2015

All times are specified in Local Standard Time (LST). Add 1 hour to adjust for Daylight Saving Time where and when it is observed.

KUGAARUK CLIMATE
NUNAVUT

68°32'15.060" N
89°47'47.020" W
15.80 m
2303094
71407
NBB

Download Data

Hourly Data (October 2015)
Hourly Data Report for October 13, 2015
Temp Definition
°C
Dew Point Temp Definition
°C
Rel Hum Definition
%
Wind Dir Definition
10's deg

Wind Spd Definition
km/h
Visibility Definition
km
Stn Press Definition
kPa
Hmdx Definition


Wind Chill Definition


Weather Definition


TIME
00:00 -10.6 -11.9 91 27 5   99.78   -14 LegendNANA
01:00 -8.7 -9.8 92 29 12   99.78   -14 LegendNANA
02:00 -8.2 -9.5 90 29 14   99.77   -14 LegendNANA
03:00 -8.0 -9.3 90 26 13   99.72   -14 LegendNANA
04:00 -7.5 -8.9 89 29 15   99.70   -14 LegendNANA
05:00 -7.3 -9.1 87 30 20   99.69   -14 LegendNANA
06:00 -7.5 -9.5 85 30 16   99.67   -14 LegendNANA
07:00 -7.2 -9.3 85 29 14   99.67   -13 LegendNANA
08:00 -7.4 -9.8 83 30 16   99.67   -14 LegendNANA
09:00 -7.8 -10.4 82 29 13   99.69   -14 LegendNANA
10:00 -8.2 -11.2 79 27 14   99.70   -14 LegendNANA
11:00 -7.5 -9.9 83 27 17   99.68   -14 LegendNANA
12:00 -7.8 -9.7 86 27 20   99.69   -15 LegendNANA
13:00 -7.8 -10.0 84 26 18   99.71   -15 LegendNANA
14:00 -8.3 -10.3 86 25 17   99.74   -15 LegendNANA
15:00 -8.2 -10.1 87 23 18   99.76   -15 LegendNANA
16:00 -7.8 -9.6 87 26 21   99.77   -15 LegendNANA
17:00 -7.2 -8.6 90 25 15   99.79   -13 LegendNANA
18:00 -6.0 -7.3 91 26 18   99.80   -12 LegendNANA
19:00 -5.5 -6.7 91 28 20   99.79   -12 LegendNANA
20:00 -5.4 -6.9 89 30 21   99.80   -12 LegendNANA
21:00 -5.5 -7.6 85 30 23   99.81   -13 LegendNANA
22:00 -5.7 -7.6 86 29 25   99.83   -13 LegendNANA
23:00 -5.5 -7.7 84 31 28   99.83   -13 LegendNANA

Notes on Data Quality.

Legend

  • E = Estimated
  • M = Missing
  • NA = Not Available
  • ‡ = Partner data that is not subject to review by the National Climate Archives
Date modified: